Powrót do katalogu

ARIANE 44LP DEB

LostHEO
NORAD 26794·DEBRIS·🇫🇷 France

Wystrzelony Mar 2, 1991 z Guiana Space Centre

Loading…

Następne Przeloty (najbliższe 24 godziny)

TLE

NieaktualneSource: Space-Track

Epoka: Jun 1, 2026, 14:15 UTC

1 26794U 91015L   26152.59411734  .00000097  00000-0  25513-2 0  9998
2 26794   7.9193  25.7471 6615430 218.0130 348.7944  2.89506314127709

Śledź ARIANE 44LP DEB w czasie rzeczywistym z AllMySat

Download on the App Store